Location: Central Falls
(41.8900°N, 71.3929°W)
Time: 07:39:36
(UTC+00:00)

Tiros 1 despin weight - Pass Details

Date: 08 December 2023
Orbit: 581 x 624 km, 48.2° (Epoch: 29 February)

Event Time Altitude Azimuth Distance (km) Brightness Sun altitude
Rises 22:41:12 0° 254° (WSW) 2,806 ? -15.6°
Reaches altitude 10° 22:43:30 10° 258° (WSW) 1,902 ? -16.0°
Maximum altitude 22:47:48 59° 339° (NNW) 672 ? -16.8°
Enters shadow 22:49:42 31° 47° (NE) 1,030 ? -17.2°
Drops below altitude 10° 22:52:06 10° 59° (ENE) 1,897 - -17.6°
Exits shadow 23:25:03 -65° 81° (E) 12,223 ? -23.6°
Sets 00:36:00 0° 75° (ENE) 2,799 - -36.7°
